• In Russia
  • List of Countries
  • For 7 days
  • Water Temperature
  • Satellite Maps
  • Weather Map
  • Weather Widgets
  • user-avatar
    Login

    Hourly Weather Hurghada

    Today, 25 February, Sunday

    Time Temperature Precipitation Wind Pressure Humidity
    00:00 +14°C° 0 mm 2 mps 681 mmHg 31%
    01:00 +14°C° 0 mm 2 mps 681 mmHg 31%
    02:00 +13°C° 0 mm 2 mps 681 mmHg 32%
    03:00 +13°C° 0 mm 1 mps 681 mmHg 31%
    04:00 +12°C° 0 mm 1 mps 681 mmHg 31%
    05:00 +12°C° 0 mm 1 mps 681 mmHg 31%
    06:00 +14°C° 0 mm 1 mps 682 mmHg 27%
    07:00 +15°C° 0 mm 1 mps 682 mmHg 24%
    08:00 +18°C° 0 mm 1 mps 683 mmHg 20%
    09:00 +20°C° 0 mm 1 mps 683 mmHg 18%
    10:00 +21°C° 0 mm 1 mps 683 mmHg 17%
    11:00 +23°C° 0 mm 1 mps 684 mmHg 16%
    12:00 +23°C° 0 mm 2 mps 683 mmHg 15%
    13:00 +24°C° 0 mm 2 mps 683 mmHg 14%
    14:00 +25°C° 0 mm 3 mps 683 mmHg 13%
    15:00 +25°C° 0 mm 3 mps 683 mmHg 14%
    16:00 +23°C° 0 mm 4 mps 682 mmHg 15%
    17:00 +23°C° 0 mm 4 mps 682 mmHg 16%
    18:00 +22°C° 0 mm 4 mps 682 mmHg 18%
    19:00 +21°C° 0 mm 3 mps 682 mmHg 20%
    20:00 +20°C° 0 mm 2 mps 682 mmHg 22%
    21:00 +19°C° 0 mm 2 mps 682 mmHg 23%
    22:00 +19°C° 0 mm 2 mps 681 mmHg 24%
    23:00 +19°C° 0 mm 1 mps 681 mmHg 24%

    Tomorrow, 26 February, Monday

    Time Temperature Precipitation Wind Pressure Humidity
    00:00 +19°C° 0 mm 1 mps 681 mmHg 25%
    01:00 +18°C° 0 mm 1 mps 680 mmHg 25%
    02:00 +17°C° 0 mm 2 mps 680 mmHg 26%
    03:00 +16°C° 0 mm 1 mps 680 mmHg 26%
    04:00 +16°C° 0 mm 1 mps 680 mmHg 27%
    05:00 +15°C° 0 mm 1 mps 680 mmHg 27%
    06:00 +17°C° 0 mm 2 mps 680 mmHg 26%
    07:00 +18°C° 0 mm 2 mps 681 mmHg 24%
    08:00 +19°C° 0 mm 3 mps 681 mmHg 22%
    09:00 +20°C° 0 mm 3 mps 682 mmHg 21%
    10:00 +21°C° 0 mm 4 mps 682 mmHg 19%
    11:00 +23°C° 0 mm 5 mps 682 mmHg 17%
    12:00 +23°C° 0 mm 5 mps 682 mmHg 17%
    13:00 +25°C° 0 mm 5 mps 681 mmHg 17%
    14:00 +24°C° 0 mm 6 mps 681 mmHg 17%
    15:00 +25°C° 0 mm 5 mps 680 mmHg 18%
    16:00 +23°C° 0 mm 5 mps 680 mmHg 19%
    17:00 +23°C° 0 mm 4 mps 680 mmHg 20%
    18:00 +21°C° 0 mm 4 mps 680 mmHg 23%
    19:00 +20°C° 0 mm 3 mps 681 mmHg 25%
    20:00 +19°C° 0 mm 2 mps 681 mmHg 28%
    21:00 +18°C° 0 mm 2 mps 681 mmHg 29%
    22:00 +17°C° 0 mm 2 mps 681 mmHg 30%
    23:00 +17°C° 0 mm 2 mps 681 mmHg 32%

    Day after tomorrow, 27 February, Tuesday

    Time Temperature Precipitation Wind Pressure Humidity
    00:00 +16°C° 0 mm 2 mps 681 mmHg 33%
    01:00 +16°C° 0 mm 2 mps 681 mmHg 34%
    02:00 +15°C° 0 mm 1 mps 681 mmHg 35%
    03:00 +15°C° 0 mm 1 mps 681 mmHg 36%
    04:00 +15°C° 0 mm 2 mps 680 mmHg 37%
    05:00 +14°C° 0 mm 2 mps 680 mmHg 38%
    06:00 +15°C° 0 mm 2 mps 681 mmHg 36%
    07:00 +16°C° 0 mm 2 mps 682 mmHg 33%
    08:00 +18°C° 0 mm 2 mps 682 mmHg 31%
    09:00 +19°C° 0 mm 2 mps 683 mmHg 28%
    10:00 +20°C° 0 mm 3 mps 683 mmHg 25%
    11:00 +21°C° 0 mm 4 mps 683 mmHg 22%
    12:00 +21°C° 0 mm 4 mps 683 mmHg 20%
    13:00 +22°C° 0 mm 5 mps 683 mmHg 19%
    14:00 +23°C° 0 mm 5 mps 682 mmHg 18%
    15:00 +22°C° 0 mm 5 mps 682 mmHg 19%
    16:00 +21°C° 0 mm 5 mps 682 mmHg 21%
    17:00 +21°C° 0 mm 5 mps 682 mmHg 22%
    18:00 +20°C° 0 mm 4 mps 682 mmHg 26%
    19:00 +18°C° 0 mm 3 mps 682 mmHg 29%
    20:00 +17°C° 0 mm 3 mps 683 mmHg 33%
    21:00 +17°C° 0 mm 2 mps 683 mmHg 35%
    22:00 +16°C° 0 mm 2 mps 682 mmHg 38%
    23:00 +15°C° 0 mm 2 mps 682 mmHg 40%

    28 February, Wednesday

    Time Temperature Precipitation Wind Pressure Humidity
    00:00 +15°C° 0 mm 2 mps 682 mmHg 42%
    01:00 +14°C° 0 mm 2 mps 682 mmHg 44%
    02:00 +14°C° 0 mm 2 mps 681 mmHg 46%
    03:00 +13°C° 0 mm 2 mps 681 mmHg 47%
    04:00 +13°C° 0 mm 2 mps 681 mmHg 48%
    05:00 +12°C° 0 mm 2 mps 681 mmHg 49%
    06:00 +13°C° 0 mm 2 mps 682 mmHg 46%
    07:00 +14°C° 0 mm 2 mps 682 mmHg 43%
    08:00 +15°C° 0 mm 2 mps 682 mmHg 39%
    09:00 +16°C° 0 mm 2 mps 683 mmHg 35%
    10:00 +17°C° 0 mm 3 mps 683 mmHg 30%
    11:00 +19°C° 0 mm 3 mps 683 mmHg 25%
    12:00 +19°C° 0 mm 3 mps 682 mmHg 23%
    13:00 +20°C° 0 mm 4 mps 682 mmHg 20%
    14:00 +21°C° 0 mm 4 mps 681 mmHg 18%
    15:00 +20°C° 0 mm 5 mps 681 mmHg 19%
    16:00 +20°C° 0 mm 5 mps 681 mmHg 20%
    17:00 +19°C° 0 mm 5 mps 681 mmHg 21%
    18:00 +17°C° 0 mm 5 mps 681 mmHg 24%
    19:00 +16°C° 0 mm 5 mps 681 mmHg 27%
    20:00 +15°C° 0 mm 4 mps 681 mmHg 30%
    21:00 +14°C° 0 mm 4 mps 681 mmHg 30%
    22:00 +14°C° 0 mm 4 mps 681 mmHg 30%
    23:00 +14°C° 0 mm 4 mps 681 mmHg 30%

    1 March, Thursday

    Time Temperature Precipitation Wind Pressure Humidity
    00:00 +13°C° 0 mm 4 mps 681 mmHg 31%
    01:00 +12°C° 0 mm 4 mps 681 mmHg 31%
    02:00 +12°C° 0 mm 4 mps 680 mmHg 32%
    03:00 +11°C° 0 mm 4 mps 680 mmHg 32%
    04:00 +11°C° 0 mm 4 mps 680 mmHg 32%
    05:00 +10°C° 0 mm 4 mps 680 mmHg 32%
    06:00 +11°C° 0 mm 4 mps 681 mmHg 30%
    07:00 +12°C° 0 mm 5 mps 681 mmHg 27%
    08:00 +13°C° 0 mm 5 mps 682 mmHg 25%
    09:00 +15°C° 0 mm 5 mps 682 mmHg 24%
    10:00 +16°C° 0 mm 5 mps 683 mmHg 23%
    11:00 +19°C° 0 mm 5 mps 683 mmHg 22%
    12:00 +20°C° 0 mm 5 mps 683 mmHg 21%
    13:00 +21°C° 0 mm 5 mps 682 mmHg 20%
    14:00 +22°C° 0 mm 6 mps 682 mmHg 19%
    15:00 +21°C° 0 mm 6 mps 682 mmHg 20%
    16:00 +21°C° 0 mm 6 mps 682 mmHg 21%
    17:00 +21°C° 0 mm 6 mps 682 mmHg 22%
    18:00 +19°C° 0 mm 5 mps 682 mmHg 24%
    19:00 +18°C° 0 mm 4 mps 682 mmHg 27%
    20:00 +17°C° 0 mm 3 mps 682 mmHg 29%
    21:00 +16°C° 0 mm 3 mps 682 mmHg 29%
    22:00 +16°C° 0 mm 3 mps 682 mmHg 29%
    23:00 +14°C° 0 mm 3 mps 682 mmHg 29%

    2 March, Friday

    Time Temperature Precipitation Wind Pressure Humidity
    00:00 +14°C° 0 mm 3 mps 682 mmHg 30%
    01:00 +14°C° 0 mm 3 mps 682 mmHg 30%
    02:00 +13°C° 0 mm 3 mps 681 mmHg 31%
    03:00 +13°C° 0 mm 3 mps 681 mmHg 32%
    04:00 +13°C° 0 mm 2 mps 681 mmHg 32%
    05:00 +13°C° 0 mm 2 mps 681 mmHg 33%
    06:00 +14°C° 0 mm 2 mps 682 mmHg 31%
    07:00 +15°C° 0 mm 2 mps 682 mmHg 30%
    08:00 +16°C° 0 mm 2 mps 683 mmHg 28%
    09:00 +18°C° 0 mm 2 mps 683 mmHg 27%
    10:00 +19°C° 0 mm 2 mps 683 mmHg 25%
    11:00 +21°C° 0 mm 2 mps 683 mmHg 24%
    12:00 +21°C° 0 mm 2 mps 683 mmHg 23%
    13:00 +23°C° 0 mm 2 mps 683 mmHg 22%
    14:00 +24°C° 0 mm 2 mps 682 mmHg 21%
    15:00 +23°C° 0 mm 2 mps 682 mmHg 22%
    16:00 +23°C° 0 mm 2 mps 682 mmHg 24%
    17:00 +23°C° 0 mm 2 mps 682 mmHg 25%
    18:00 +20°C° 0 mm 2 mps 682 mmHg 29%
    19:00 +20°C° 0 mm 1 mps 682 mmHg 32%
    20:00 +19°C° 0 mm 1 mps 682 mmHg 35%
    21:00 +18°C° 0 mm 1 mps 681 mmHg 36%
    22:00 +18°C° 0 mm 1 mps 681 mmHg 37%
    23:00 +15°C° 0 mm 0 mps 681 mmHg 38%
    Show more